TimeCST,TemperatureF,Dew PointF,Humidity,Sea Level PressureIn,VisibilityMPH,Wind Direction,Wind SpeedMPH,Gust SpeedMPH,PrecipitationIn,Events,Conditions,WindDirDegrees,DateUTC
12:52 AM,16.0,12.0,84,30.33,-9999.0,WNW,9.2,-,N/A,,Unknown,290,2013-01-03 06:52:00
1:52 AM,17.1,12.0,81,30.33,-9999.0,WNW,6.9,-,N/A,,Unknown,290,2013-01-03 07:52:00
2:52 AM,17.1,12.0,81,30.34,-9999.0,West,16.1,-,N/A,,Unknown,270,2013-01-03 08:52:00
3:52 AM,15.1,10.9,84,30.32,-9999.0,West,16.1,-,N/A,,Unknown,270,2013-01-03 09:52:00
4:52 AM,16.0,12.0,84,30.30,-9999.0,West,17.3,-,N/A,,Unknown,270,2013-01-03 10:52:00
5:52 AM,17.1,12.9,84,30.30,-9999.0,West,19.6,-,N/A,,Unknown,280,2013-01-03 11:52:00
6:52 AM,17.1,12.9,84,30.28,-9999.0,West,9.2,-,N/A,,Unknown,270,2013-01-03 12:52:00
7:52 AM,12.0,10.0,92,30.25,-9999.0,WSW,9.2,-,N/A,,Unknown,240,2013-01-03 13:52:00
8:52 AM,10.0,7.0,87,30.25,-9999.0,WSW,9.2,-,N/A,,Unknown,240,2013-01-03 14:52:00
9:52 AM,14.0,10.0,84,30.23,-9999.0,WSW,8.1,-,N/A,,Unknown,250,2013-01-03 15:52:00
10:52 AM,17.1,12.0,81,30.22,-9999.0,WSW,6.9,-,N/A,,Unknown,250,2013-01-03 16:52:00
11:52 AM,18.0,12.0,78,30.19,-9999.0,WSW,9.2,-,N/A,,Unknown,240,2013-01-03 17:52:00
12:52 PM,19.9,12.9,74,30.16,-9999.0,WSW,10.4,-,N/A,,Unknown,240,2013-01-03 18:52:00
1:52 PM,23.0,14.0,68,30.12,-9999.0,WSW,5.8,-,N/A,,Unknown,240,2013-01-03 19:52:00
2:52 PM,25.0,14.0,63,30.09,-9999.0,WSW,11.5,-,N/A,,Unknown,240,2013-01-03 20:52:00
3:52 PM,26.1,14.0,60,30.09,-9999.0,WSW,8.1,-,N/A,,Unknown,250,2013-01-03 21:52:00
4:52 PM,24.1,14.0,65,30.07,-9999.0,WSW,11.5,-,N/A,,Unknown,250,2013-01-03 22:52:00
5:52 PM,19.9,12.0,71,30.08,-9999.0,West,6.9,-,N/A,,Unknown,270,2013-01-03 23:52:00
6:52 PM,12.9,7.0,77,30.09,-9999.0,West,4.6,-,N/A,,Unknown,260,2013-01-04 00:52:00
7:52 PM,17.1,10.0,74,30.10,-9999.0,West,4.6,-,N/A,,Unknown,260,2013-01-04 01:52:00
8:52 PM,19.0,10.0,68,30.10,-9999.0,West,9.2,-,N/A,,Unknown,280,2013-01-04 02:52:00
9:52 PM,19.0,10.0,68,30.09,-9999.0,West,11.5,-,N/A,,Unknown,280,2013-01-04 03:52:00
10:52 PM,17.1,9.0,71,30.10,-9999.0,WSW,4.6,-,N/A,,Unknown,250,2013-01-04 04:52:00
11:52 PM,19.0,10.0,68,30.10,-9999.0,West,8.1,-,N/A,,Unknown,270,2013-01-04 05:52:00